This is the latest recevied weather packets stored in our database for station/object JA7ZQY-10. If no packets are shown the sender has not sent any weather packets the latest 10 day(s).
| Time | Temp. | Humidity | Pressure | Rain* | Wind** | Luminosity | Snow |
|---|---|---|---|---|---|---|---|
| 1778057091 | 21.67° C | 32% | 1017.1 hPa | 0 mm | - | - | - |
| 1778056491 | 21.67° C | 31% | 1017.1 hPa | 0 mm | - | - | - |
| 1778055890 | 22.22° C | 31% | 1017.1 hPa | 0 mm | - | - | - |
| 1778055290 | 22.22° C | 31% | 1016.8 hPa | 0 mm | - | - | - |
| 1778054690 | 22.78° C | 28% | 1016.8 hPa | 0 mm | - | - | - |
| 1778054091 | 22.78° C | 28% | 1016.9 hPa | 0 mm | - | - | - |
| 1778053490 | 22.78° C | 28% | 1016.8 hPa | 0 mm | - | - | - |
| 1778052891 | 23.33° C | 28% | 1016.6 hPa | 0 mm | - | - | - |
| 1778052290 | 23.33° C | 28% | 1016.6 hPa | 0 mm | - | - | - |
| 1778051691 | 23.33° C | 27% | 1016.8 hPa | 0 mm | - | - | - |
| 1778051091 | 23.89° C | 26% | 1016.7 hPa | 0 mm | - | - | - |
| 1778050491 | 23.89° C | 25% | 1016.7 hPa | 0 mm | - | - | - |
| 1778049890 | 23.33° C | 24% | 1016.7 hPa | 0 mm | - | - | - |
| 1778049291 | 23.89° C | 24% | 1016.6 hPa | 0 mm | - | - | - |
| 1778048691 | 24.44° C | 24% | 1016.3 hPa | 0 mm | - | - | - |
| 1778048091 | 23.89° C | 23% | 1016.4 hPa | 0 mm | - | - | - |
| 1778047491 | 24.44° C | 25% | 1016.5 hPa | 0 mm | - | - | - |
| 1778046891 | 23.89° C | 27% | 1016.6 hPa | 0 mm | - | - | - |
| 1778046291 | 23.89° C | 27% | 1016.8 hPa | 0 mm | - | - | - |
| 1778045691 | 23.89° C | 26% | 1016.8 hPa | 0 mm | - | - | - |
| 1778045091 | 23.89° C | 26% | 1016.8 hPa | 0 mm | - | - | - |
| 1778044490 | 23.89° C | 26% | 1016.7 hPa | 0 mm | - | - | - |
| 1778043891 | 24.44° C | 26% | 1016.9 hPa | 0 mm | - | - | - |
| 1778043291 | 23.89° C | 26% | 1016.9 hPa | 0 mm | - | - | - |
| 1778042691 | 23.33° C | 27% | 1016.9 hPa | 0 mm | - | - | - |
* Rain latest hour (hover to see other rain measurements)
** Current wind speed in m/s (hover to see current wind gust speed)